Location: *
(33.8649°S, 62.1526°E)
Time: 04:39:31
(UTC+00:00)

Cosmos 1461 - Pass Details

Date: 17 January 2021
Orbit: 502 x 662 km, 65.0° (Epoch: 27 February)

Event Time Altitude Azimuth Distance (km) Brightness Sun altitude
Rises 23:03:37 0° 210° (SSW) 2,695 6.5 -20.5°
Reaches altitude 10° 23:05:46 10° 210° (SSW) 1,818 5.6 -20.1°
Maximum altitude 23:09:51 84° 295° (WNW) 570 2.7 -19.5°
Drops below altitude 10° 23:14:06 10° 25° (NNE) 1,888 5.4 -18.9°
Sets 23:16:22 0° 25° (NNE) 2,808 6.3 -18.5°
